Centennial, WY (82055)

7:54 PM MDT on October 20, 2014 (GMT -0600)
Aspen Country | Change Station
CLOSE
Current Station
Personal Weather Station
Location: Centennial, WY
Elevation: 8050 ft
Nearby Weather Stations

Elev 8050 ft 41.29 °N, 106.15 °W | Updated 13 minutes ago

Partly Cloudy
Partly Cloudy
50.8 °F
Feels Like 50.8 °F
N
0.0
Wind Variable Wind from North
Gusts 0.0 mph

Today
High -- | Low -- °F
--% Chance of Precip.
Yesterday
High -- | Low -- °F
Precip. -- in
7:21 AM 6:15 PM
Waning Crescent, 8% visible
Pressure 30.00 in
Visibility 10.0 miles
Clouds Few 5000 ft
Mostly Cloudy 9000 ft
Mostly Cloudy 11000 ft
Dew Point 34 °F
Humidity 52%
Rainfall 0.00 in
Snow Depth 0 in , 0 in , 4 in
UV 0 out of 12
Pollen 3.00 out of 12
Air Quality Not available.
Flu Activity Sporadic
METAR KLAR 210053Z AUTO 14006KT 10SM FEW050 BKN090 BKN110 13/02 A3015 RMK AO2 SLP157 T01280017

More Conditions Fewer Conditions

Pressure 30.00 in
Visibility 10.0 miles
Clouds Few 5000 ft
Mostly Cloudy 9000 ft
Mostly Cloudy 11000 ft
Dew Point 34 °F
Humidity 52%
Rainfall 0.00 in
Snow Depth 0 in , 0 in , 4 in
UV 0 out of 12
Pollen 3.00 out of 12
Air Quality Not available.
Flu Activity Sporadic
METAR KLAR 210053Z AUTO 14006KT 10SM FEW050 BKN090 BKN110 13/02 A3015 RMK AO2 SLP157 T01280017

More Conditions Fewer Conditions

10-Day Weather Forecast

Almanac

Astronomy

Oct. 20, 2014 Rise Set
Actual Time 7:21 AM MDT 6:15 PM MDT
Civil Twilight 6:53 AM MDT 6:43 PM MDT
Nautical Twilight 6:21 AM MDT 7:16 PM MDT
Astronomical Twilight 5:49 AM MDT 7:48 PM MDT
Moon 4:10 AM MDT (10/20) 4:41 PM MDT (10/20)
Length of Visible Light 11h 50m
Length of Day
10h 54m
Tomorrow will be 2m 36s shorter.
Waning Crescent, 8% of the Moon is Illuminated
Today
Waning Crescent
Oct 23
New
Oct 30
First Quarter
Nov 6
Full
Nov 14
Last Quarter

Today's Extremes

State Highs State Lows

Community

WunderPhotos

Upload Photos

1,763,563 photos uploaded!

Nearby

Snow Depth

Station Depth Elevation
Cinnabar Park 0 in 9690 ft
North French Creek 0 in 10130 ft
Sand Lake 4 in 10050 ft
Crow Creek 0 in 8330 ft
Old Battle 2 in 9920 ft

Earthquake Activity

City Distance Mag. Time & Date
No recent earthquake activity has been reported nearby.
Minimum magnitude displayed is 2.5.

Coastal Water Temperatures

Place Temperature
No Stations Reporting

Nearby Weather Stations